Estación de Freire

Ultimos registro cada 15 minutos 40
Estación Fecha / Hora Temperatura Humedad Lluvia Velocidad Dirección Radiación Presion
40 Freire 10-05-2026 10:00 8,4 94 0 0 171 271 1009,6
39 Freire 10-05-2026 09:30 6,6 99 0 0 171 221 1009,6
38 Freire 10-05-2026 09:15 5,1 99 0 0 176 186 1009,6
37 Freire 10-05-2026 09:00 3,5 98 0 0 171 79 1009,6
36 Freire 10-05-2026 08:45 2,7 98 0 0 171 16 1009,6
35 Freire 10-05-2026 08:30 2,1 97 0 0 171 14 1009,6
34 Freire 10-05-2026 08:15 1,8 97 0 0 171 12 1009,6
33 Freire 10-05-2026 08:00 1,8 96 0 0 171 9 1009,6
32 Freire 10-05-2026 07:45 1,8 97 0 0 171 5 1009,6
31 Freire 10-05-2026 07:30 1,7 96 0 0 171 0 1009,6
30 Freire 10-05-2026 07:15 1,7 96 0 0 171 0 1009,6
29 Freire 10-05-2026 07:00 2 96 0 0 171 0 1009,6
28 Freire 10-05-2026 06:45 2,1 96 0 0 171 0 1009,6
27 Freire 10-05-2026 06:30 2,3 96 0 0 171 0 1009,6
26 Freire 10-05-2026 06:15 2,4 96 0 0 171 0 1009,6
25 Freire 10-05-2026 06:00 2,4 96 0 0 171 0 1009,6
24 Freire 10-05-2026 05:45 2,6 96 0 0 171 0 1009,6
23 Freire 10-05-2026 05:30 2,7 96 0,3 0 171 0 1009,6
22 Freire 10-05-2026 05:15 2,6 96 0 0 171 0 1009,6
21 Freire 10-05-2026 05:00 2,4 95 0 0 171 0 1009,6
20 Freire 10-05-2026 04:45 2,5 95 0 0 171 0 1009,6
19 Freire 10-05-2026 04:30 2,7 95 0 0 171 0 1009,6
18 Freire 10-05-2026 04:15 2,9 95 0 0 171 0 1009,6
17 Freire 10-05-2026 04:00 3,2 95 0 0 171 0 1009,6
16 Freire 10-05-2026 03:45 3,3 94 0 0 171 0 1009,6
15 Freire 10-05-2026 03:30 3,5 95 0 0 171 0 1009,6
14 Freire 10-05-2026 03:15 3,5 94 0 0 171 0 1009,6
13 Freire 10-05-2026 03:00 3,7 93 0 0 171 0 1009,6
12 Freire 10-05-2026 02:45 3,9 93 0 0 171 0 1009,6
11 Freire 10-05-2026 02:30 4,3 93 0 0 171 0 1009,6
10 Freire 10-05-2026 02:15 4,6 92 0 0 171 0 1009,6
9 Freire 10-05-2026 02:00 4,8 91 0 0 171 0 1009,6
8 Freire 10-05-2026 01:45 5,3 90 0 0 171 0 1009,6
7 Freire 10-05-2026 01:30 5,7 88 0 0 176 0 1009,6
6 Freire 10-05-2026 01:15 6,3 86 0 0 176 0 1009,6
5 Freire 10-05-2026 01:00 7 85 0 0 176 0 1009,6
4 Freire 10-05-2026 00:45 7,8 80 0 0,4 176 0 1009,6
3 Freire 10-05-2026 00:30 8,4 78 0 0,4 176 0 1009,6
2 Freire 10-05-2026 00:15 8,4 79 0 0,9 176 0 1009,6
1 Freire 10-05-2026 00:00 8,5 79 0 0 176 0 1009,6